"Pseudo-MPEC" for P125ucH
Created 2025 Jan 14 13:31:04 UT using Find_Orb
Click here for an explanation of pseudo-MPECs
Astrometry:
P125ucH* C2025 01 07.47137209 16 43.017+38 25 12.82 ~193l 21.73wXNEOCPF51
P125ucH C2025 01 07.48252209 16 39.432+38 25 00.47 ~193l 21.62wXNEOCPF51
P125ucH C2025 01 07.50493909 16 32.236+38 24 35.69 ~193l 21.02wXNEOCPF51
Station data:
(F51) Pan-STARRS 1, Haleakala (N20.707234 W156.255910) US/Hawaii.
Observers J. Bulger, T. Lowe, A. Schultz, M. Willman. Measurers K.
Chambers, S. Chastel, T. de Boer, L. Denneau, J. Fairlamb, H. Flewelling,
M. Huber, C.-C. Lin, E. Magnier, Y. Ramanjooloo, R. Wainscoat, R. Weryk.
1.8-m Ritchey-Chrétien + CCD.
Orbital elements: P125ucH
Perihelion 2024 Sep 18.88926 +/- 113 TT = 21:20:31 (JD 2460572.38926)
Epoch 2025 Jan 7.0 TT = JDT 2460682.5 Earth MOID: 0.2234 Ve: 0.0473
M 69.82790766 +/- 80 Ma: 0.0395 AutoNEOCP
n 0.63416071 +/- 0.413 Peri. 39.32352 +/- 70
a 1.34174451 +/- 0.583 Node 309.00570 +/- 36
e 0.4721474 +/- 0.25 Incl. 25.92055 +/- 29
P 1.554/567.669d H 21.13 G 0.15 U 12.2 SR
q 0.70824328 +/- 0.446 Q 1.97524573 +/- 21.1 (J2000 ecliptic)
From 3 observations 2025 Jan. 7 (48.3 min); mean residual 0".03
Residuals in arcseconds: 250107 F51 .03+ .03+ 250107 F51 .04- .05- 250107 F51 .01+ .02+ Ephemerides (geocentric): Date (UTC) HH RA Dec delta r elong mag " sig PA ---- -------- ------------ ------------ ------ ------ ----- --- -------- 2025 01 14 14 08 40 49.776 +35 48 12.33 .49908 1.4645 161.0 21.2 33d 123 2025 01 14 15 08 40 37.789 +35 47 09.65 .49923 1.4648 161.1 21.2 34d 123 2025 01 14 16 08 40 25.811 +35 46 06.90 .49938 1.4650 161.1 21.2 34d 123 2025 01 14 17 08 40 13.844 +35 45 04.08 .49954 1.4653 161.2 21.2 34d 123 2025 01 14 18 08 40 01.886 +35 44 01.19 .49969 1.4656 161.2 21.2 34d 123 2025 01 14 19 08 39 49.937 +35 42 58.22 .49984 1.4658 161.3 21.2 35d 123 2025 01 14 20 08 39 37.999 +35 41 55.19 .49999 1.4661 161.4 21.2 35d 123 2025 01 14 21 08 39 26.071 +35 40 52.08 .50015 1.4664 161.4 21.2 35d 123 2025 01 14 22 08 39 14.152 +35 39 48.91 .50030 1.4666 161.5 21.2 35d 123 2025 01 14 23 08 39 02.243 +35 38 45.66 .50045 1.4669 161.5 21.2 35d 123 2025 01 15 00 08 38 50.344 +35 37 42.34 .50061 1.4671 161.6 21.2 35d 123 2025 01 15 01 08 38 38.456 +35 36 38.96 .50077 1.4674 161.6 21.2 36d 123 2025 01 15 02 08 38 26.577 +35 35 35.50 .50092 1.4677 161.7 21.2 36d 123 2025 01 15 03 08 38 14.708 +35 34 31.98 .50108 1.4679 161.8 21.2 36d 123 2025 01 15 04 08 38 02.850 +35 33 28.39 .50124 1.4682 161.8 21.2 36d 123 2025 01 15 05 08 37 51.001 +35 32 24.73 .50139 1.4684 161.9 21.2 36d 123 2025 01 15 06 08 37 39.163 +35 31 21.00 .50155 1.4687 161.9 21.2 36d 123 2025 01 15 07 08 37 27.335 +35 30 17.20 .50171 1.4690 162.0 21.2 36d 123 2025 01 15 08 08 37 15.517 +35 29 13.34 .50187 1.4692 162.0 21.2 37d 123 2025 01 15 09 08 37 03.709 +35 28 09.41 .50203 1.4695 162.1 21.2 37d 122 2025 01 15 10 08 36 51.912 +35 27 05.41 .50219 1.4698 162.2 21.2 37d 122 2025 01 15 11 08 36 40.124 +35 26 01.35 .50235 1.4700 162.2 21.2 37d 122 2025 01 15 12 08 36 28.348 +35 24 57.22 .50252 1.4703 162.3 21.2 37d 122 2025 01 15 13 08 36 16.581 +35 23 53.03 .50268 1.4705 162.3 21.2 37d 122 2025 01 15 14 08 36 04.826 +35 22 48.77 .50284 1.4708 162.4 21.2 37d 122 2025 01 15 15 08 35 53.080 +35 21 44.44 .50301 1.4711 162.4 21.2 37d 122 2025 01 15 16 08 35 41.345 +35 20 40.05 .50317 1.4713 162.5 21.2 37d 122 2025 01 15 17 08 35 29.621 +35 19 35.60 .50334 1.4716 162.5 21.2 37d 122 2025 01 15 18 08 35 17.907 +35 18 31.08 .50350 1.4718 162.6 21.2 37d 122 2025 01 15 19 08 35 06.203 +35 17 26.50 .50367 1.4721 162.7 21.2 38d 122 2025 01 15 20 08 34 54.511 +35 16 21.86 .50383 1.4724 162.7 21.2 38d 122 2025 01 15 21 08 34 42.829 +35 15 17.15 .50400 1.4726 162.8 21.2 38d 122 2025 01 15 22 08 34 31.157 +35 14 12.38 .50417 1.4729 162.8 21.2 38d 122 2025 01 15 23 08 34 19.497 +35 13 07.54 .50434 1.4731 162.9 21.2 38d 122 2025 01 16 00 08 34 07.847 +35 12 02.65 .50450 1.4734 162.9 21.2 38d 122 2025 01 16 01 08 33 56.208 +35 10 57.69 .50467 1.4737 163.0 21.2 38d 122 2025 01 16 02 08 33 44.579 +35 09 52.67 .50484 1.4739 163.0 21.2 38d 122 2025 01 16 03 08 33 32.962 +35 08 47.59 .50501 1.4742 163.1 21.2 38d 122 2025 01 16 04 08 33 21.355 +35 07 42.45 .50519 1.4744 163.1 21.2 38d 122 2025 01 16 05 08 33 09.760 +35 06 37.25 .50536 1.4747 163.2 21.2 38d 122 2025 01 16 06 08 32 58.175 +35 05 31.99 .50553 1.4750 163.2 21.2 38d 122 2025 01 16 07 08 32 46.601 +35 04 26.67 .50570 1.4752 163.3 21.2 38d 122 2025 01 16 08 08 32 35.038 +35 03 21.29 .50588 1.4755 163.3 21.2 39d 122 2025 01 16 09 08 32 23.486 +35 02 15.85 .50605 1.4757 163.4 21.2 39d 122 2025 01 16 10 08 32 11.945 +35 01 10.35 .50622 1.4760 163.4 21.2 39d 122 2025 01 16 11 08 32 00.416 +35 00 04.79 .50640 1.4763 163.5 21.2 39d 122 2025 01 16 12 08 31 48.897 +34 58 59.18 .50657 1.4765 163.5 21.2 39d 122 2025 01 16 13 08 31 37.390 +34 57 53.50 .50675 1.4768 163.6 21.2 39d 122